Weather History for Lancaster, CA

Change the Weather History Date:

Tuesday, October 4, 2011

  Actual Average Record
Temperature  
Mean Temperature 61 °F 67 °F  
Max Temperature 69 °F 84 °F 100 °F (1980)
Min Temperature 53 °F 50 °F 38 °F (2002)
Degree Days  
Heating Degree Days 4    
Month to date heating degree days 4  
Since 1 July heating degree days 4  
Cooling Degree Days 0    
Month to date cooling degree days 24  
Year to date cooling degree days 1706  
Growing Degree Days 11 (Base 50)    
Moisture  
Dew Point 46 °F    
Average Humidity 60    
Maximum Humidity 77    
Minimum Humidity 42    
Precipitation  
Precipitation T in 0.01 in 0.05 in (1994)
Month to date precipitation T 0.03  
Year to date precipitation 3.88 5.28  
Since 1 July precipitation 0.23 0.37  
Snow  
Snow 0.00 in - 0.00 in ()
Month to date snowfall 0.0  
Since 1 July snowfall 0.0  
Since 1 September snowfall 0.0  
Snow Depth 0.00 in    
Sea Level Pressure  
Sea Level Pressure 29.89 in    
Wind  
Wind Speed 18 mph (WSW)    
Max Wind Speed 25 mph    
Max Gust Speed 32 mph    
Visibility 10 miles    
Events Rain    
T = Trace of Precipitation, MM = Missing Value Source: NWS Daily Summary

Daily Weather History Graph

Daily Weather History Graph

Search for Another Location

Airport:

Trip Planner

Search our weather history database for the weather conditions in past years. The results will help you decide how hot, cold, wet, or windy it might be!

Date:

Astronomy

Oct. 04, 2011 Rise Set
Actual Time 6:49 AM PDT 6:32 PM PDT
Civil Twilight 6:24 AM PDT 6:58 PM PDT
Nautical Twilight 5:55 AM PDT 7:27 PM PDT
Astronomical Twilight 5:25 AM PDT 7:56 PM PDT
Moon 2:23 PM PDT (10/4) No Moon Set
Length of Visible Light 12h 33m
Length of Day
11h 43m
First Quarter, 57% of the Moon is Illuminated
Oct 4
First Quarter
Oct 11
Full
Oct 19
Last Quarter
Oct 26
New
Nov 2
First Quarter

Hourly Weather History & Observations

Time (PDT) Temp. Dew Point Humidity Pressure Visibility Wind Dir Wind Speed Gust Speed Precip Events Conditions
12:56 AM 57.9 °F 39.0 °F 49% 29.87 in 10.0 mi NW 11.5 mph - N/A   Clear
1:56 AM 57.9 °F 41.0 °F 53% 29.88 in 10.0 mi SW 16.1 mph 26.5 mph N/A   Clear
2:56 AM 55.9 °F 44.1 °F 64% 29.87 in 10.0 mi WSW 20.7 mph - N/A   Scattered Clouds
3:56 AM 55.9 °F 45.0 °F 67% 29.87 in 10.0 mi NW 15.0 mph - 0.00 in Rain Light Rain
4:56 AM 54.0 °F 45.0 °F 72% 29.88 in 10.0 mi WNW 6.9 mph 17.3 mph 0.00 in   Mostly Cloudy
5:56 AM 54.0 °F 45.0 °F 72% 29.89 in 10.0 mi WSW 16.1 mph - N/A   Partly Cloudy
6:56 AM 54.0 °F 45.0 °F 72% 29.90 in 10.0 mi West 17.3 mph - N/A   Clear
7:56 AM 55.9 °F 46.9 °F 72% 29.91 in 10.0 mi WSW 15.0 mph - N/A   Clear
8:56 AM 57.9 °F 46.9 °F 67% 29.91 in 10.0 mi WSW 18.4 mph - N/A   Clear
9:56 AM 61.0 °F 46.0 °F 58% 29.92 in 10.0 mi SW 19.6 mph 26.5 mph N/A   Clear
10:56 AM 62.1 °F 45.0 °F 53% 29.91 in 10.0 mi SW 20.7 mph 29.9 mph N/A   Clear
11:56 AM 64.9 °F 45.0 °F 48% 29.90 in 10.0 mi WSW 20.7 mph 26.5 mph N/A   Clear
12:56 PM 68.0 °F 44.1 °F 42% 29.88 in 10.0 mi SW 21.9 mph 27.6 mph N/A   Clear
1:56 PM 66.9 °F 44.1 °F 44% 29.88 in 10.0 mi West 20.7 mph 32.2 mph N/A   Partly Cloudy
2:56 PM 64.9 °F 45.0 °F 48% 29.88 in 10.0 mi WSW 19.6 mph 26.5 mph N/A   Mostly Cloudy
3:56 PM 66.9 °F 46.0 °F 47% 29.88 in 10.0 mi WSW 21.9 mph 27.6 mph N/A   Clear
4:56 PM 63.0 °F 46.9 °F 56% 29.88 in 10.0 mi SW 18.4 mph 25.3 mph N/A   Clear
5:56 PM 61.0 °F 48.9 °F 64% 29.88 in 10.0 mi SW 21.9 mph 26.5 mph N/A   Clear
6:56 PM 59.0 °F 48.0 °F 67% 29.88 in 10.0 mi WSW 20.7 mph 26.5 mph N/A   Clear
7:56 PM 57.0 °F 50.0 °F 77% 29.89 in 10.0 mi SW 17.3 mph 23.0 mph N/A   Clear
8:56 PM 57.0 °F 48.9 °F 74% 29.90 in 10.0 mi SW 19.6 mph 26.5 mph N/A   Clear
9:56 PM 55.9 °F 48.0 °F 75% 29.91 in 10.0 mi WSW 18.4 mph 26.5 mph N/A   Clear
10:56 PM 55.9 °F 48.9 °F 77% 29.92 in 10.0 mi WSW 15.0 mph 26.5 mph N/A   Clear
11:56 PM 55.0 °F 48.9 °F 80% 29.91 in 10.0 mi WSW 13.8 mph - N/A   Partly Cloudy